User: anonymous   Login
Location: Unspecified
(0.0000°N, 0.0000°E)
Time: 05:09:16
(UTC+02:00)
Language:

ARIANE 5 R/B - Orbit

View from above orbital plane
View from above orbital plane
View from above satellite
View from above satellite

Ground track
Ground track

The orbit data is extracted from the following two-line orbital elements,

1 28886U 05041C   15 86.62821771 -.00000031  00000-0  00000+0 0  9990
2 28886 008.0654 311.7310 7189395 213.4854 066.7621 02.24318083 77487
Epoch (UTC): 27 March 2015 15:04:38
Eccentricity: 0.7189395
inclination: 8.0654°
perigee height: 550 km
apogee height: 35994 km
right ascension of ascending node: 311.7310°
argument of perigee: 213.4854°
revolutions per day: 2.24318083
mean anomaly at epoch: 66.7621°
orbit number at epoch: 7748

The dashed part of the orbit path shows where the satellite is in the earth's shadow,  

DLR